Location: Nelson
(41.2830°S, 173.2830°E)
Time: 09:39:21
(UTC+13:00)

Cosmos 1486 Rocket - Pass Details

Date: 24 January 2019
Orbit: 759 x 783 km, 74.1° (Epoch: 20 February)

Event Time Altitude Azimuth Distance (km) Brightness Sun altitude
Exits shadow 22:36:54 - 349° (NNW) 2,496 6.3 -16.3°
Reaches altitude 10° 22:37:25 10° 349° (N) 2,296 6.1 -16.3°
Maximum altitude 22:42:37 75° 73° (ENE) 803 3.9 -17.0°
Drops below altitude 10° 22:47:55 10° 157° (SSE) 2,337 6.8 -17.7°
Sets 22:50:19 0° 158° (SSE) 3,274 7.6 -18.0°
